Jacksonville, NC

8:51 PM EDT on July 24, 2017 (GMT -0400)
Ellis

Weather History for KOAJ - May, 2013

Change the Weather History Date:

Sunday, May 5, 2013

  Actual Average Record
Temperature  
Mean Temperature 60 °F -  
Max Temperature 69 °F 76 °F 91 °F (2012)
Min Temperature 51 °F 52 °F 39 °F (1997)
Degree Days  
Heating Degree Days 5    
Growing Degree Days 10 (Base 50)    
Moisture  
Dew Point 55 °F    
Average Humidity 80    
Maximum Humidity 94    
Minimum Humidity 68    
Precipitation  
Precipitation 0.01 in - - ()
Sea Level Pressure  
Sea Level Pressure 30.01 in    
Wind  
Wind Speed 15 mph (ENE)    
Max Wind Speed 20 mph    
Max Gust Speed 26 mph    
Visibility 10 miles    
Events      
Averages and records for this station are not official NWS values.
T = Trace of Precipitation, MM = Missing Value Source: NWS Daily Summary

Daily Weather History Graph

Daily Weather History Graph

Search for Another Location

Airport or City:

Trip Planner

Search our weather history database for the weather conditions in past years. The results will help you decide how hot, cold, wet, or windy it might be!

Date:

Astronomy

May. 05, 2013 Rise Set
Actual Time 6:15 AM EDT 7:59 PM EDT
Civil Twilight 5:48 AM EDT 8:26 PM EDT
Nautical Twilight 5:15 AM EDT 8:59 PM EDT
Astronomical Twilight 4:40 AM EDT 9:34 PM EDT
Moon 3:34 AM EDT (5/5) 4:05 PM EDT (5/5)
Length of Visible Light 14h 38m
Length of Day
13h 43m
Waning Crescent, 18% of the Moon is Illuminated
May 5
Waning Crescent
May 9
New
May 18
First Quarter
May 25
Full
May 31
Last Quarter

Hourly Weather History & Observations

Time (EDT) Temp. Dew Point Humidity Pressure Visibility Wind Dir Wind Speed Gust Speed Precip Events Conditions
12:15 AM 55.4 °F 48.2 °F 77% 30.06 in 10.0 mi NE 17.3 mph - N/A   Clear
12:35 AM 55.4 °F 48.2 °F 77% 30.06 in 10.0 mi NE 15.0 mph - N/A   Clear
12:55 AM 53.6 °F 48.2 °F 82% 30.05 in 10.0 mi NE 16.1 mph 21.9 mph N/A   Mostly Cloudy
1:15 AM 53.6 °F 48.2 °F 82% 30.06 in 10.0 mi NE 15.0 mph - N/A   Scattered Clouds
1:35 AM 53.6 °F 48.2 °F 82% 30.05 in 10.0 mi NE 15.0 mph 19.6 mph N/A   Partly Cloudy
1:55 AM 53.6 °F 48.2 °F 82% 30.05 in 10.0 mi NE 13.8 mph - N/A   Scattered Clouds
2:15 AM 53.6 °F 48.2 °F 82% 30.04 in 10.0 mi NE 16.1 mph 25.3 mph N/A   Overcast
2:35 AM 53.6 °F 48.2 °F 82% 30.03 in 10.0 mi NE 13.8 mph - N/A   Mostly Cloudy
2:55 AM 53.6 °F 48.2 °F 82% 30.02 in 10.0 mi NE 16.1 mph 19.6 mph N/A   Scattered Clouds
3:15 AM 53.6 °F 48.2 °F 82% 30.02 in 10.0 mi NE 17.3 mph 21.9 mph N/A   Mostly Cloudy
3:35 AM 53.6 °F 48.2 °F 82% 30.00 in 10.0 mi NNE 17.3 mph - N/A   Mostly Cloudy
3:55 AM 51.8 °F 48.2 °F 88% 30.01 in 10.0 mi NE 10.4 mph - N/A   Scattered Clouds
4:15 AM 53.6 °F 48.2 °F 82% 30.01 in 10.0 mi NE 16.1 mph - N/A   Mostly Cloudy
4:35 AM 53.6 °F 48.2 °F 82% 30.00 in 10.0 mi NNE 13.8 mph - N/A   Overcast
4:55 AM 53.6 °F 48.2 °F 82% 30.00 in 10.0 mi NE 13.8 mph - N/A   Overcast
5:15 AM 53.6 °F 48.2 °F 82% 30.01 in 10.0 mi NE 12.7 mph 19.6 mph N/A   Overcast
5:35 AM 53.6 °F 48.2 °F 82% 30.01 in 10.0 mi NE 12.7 mph - N/A   Overcast
5:55 AM 53.6 °F 48.2 °F 82% 30.01 in 10.0 mi NE 12.7 mph 17.3 mph N/A   Overcast
6:15 AM 53.6 °F 48.2 °F 82% 30.02 in 9.0 mi NE 12.7 mph - N/A   Overcast
6:35 AM 53.6 °F 50.0 °F 88% 30.02 in 7.0 mi NE 15.0 mph - N/A   Overcast
6:55 AM 53.6 °F 50.0 °F 88% 30.02 in 7.0 mi NE 16.1 mph 21.9 mph N/A   Overcast
7:15 AM 53.6 °F 50.0 °F 88% 30.01 in 6.0 mi NE 18.4 mph - N/A   Overcast
7:35 AM 53.6 °F 51.8 °F 94% 30.02 in 6.0 mi NE 16.1 mph 20.7 mph N/A   Overcast
7:55 AM 55.4 °F 51.8 °F 88% 30.03 in 6.0 mi NE 16.1 mph 23.0 mph N/A   Overcast
8:15 AM 55.4 °F 51.8 °F 88% 30.03 in 7.0 mi NE 17.3 mph - N/A   Overcast
8:35 AM 57.2 °F 51.8 °F 82% 30.03 in 8.0 mi NE 17.3 mph - N/A   Overcast
8:55 AM 57.2 °F 53.6 °F 88% 30.04 in 9.0 mi ENE 13.8 mph 21.9 mph N/A   Overcast
9:15 AM 59.0 °F 53.6 °F 82% 30.04 in 10.0 mi NE 16.1 mph - N/A   Overcast
9:35 AM 60.8 °F 53.6 °F 77% 30.03 in 10.0 mi NE 16.1 mph - N/A   Overcast
9:55 AM 60.8 °F 53.6 °F 77% 30.03 in 10.0 mi NE 15.0 mph 20.7 mph N/A   Overcast
10:15 AM 62.6 °F 55.4 °F 77% 30.03 in 10.0 mi NE 16.1 mph 20.7 mph N/A   Overcast
10:35 AM 64.4 °F 55.4 °F 73% 30.03 in 10.0 mi ENE 19.6 mph 24.2 mph N/A   Overcast
10:55 AM 64.4 °F 57.2 °F 77% 30.03 in 10.0 mi ENE 16.1 mph 20.7 mph N/A   Overcast
11:15 AM 64.4 °F 55.4 °F 73% 30.03 in 10.0 mi NE 17.3 mph 20.7 mph N/A   Overcast
11:35 AM 66.2 °F 57.2 °F 73% 30.03 in 10.0 mi NE 16.1 mph - N/A   Overcast
11:55 AM 68.0 °F 57.2 °F 68% 30.02 in 10.0 mi NE 13.8 mph - N/A   Overcast
12:15 PM 68.0 °F 57.2 °F 68% 30.02 in 10.0 mi NE 16.1 mph - N/A   Overcast
12:35 PM 69.8 °F 59.0 °F 68% 30.01 in 10.0 mi ENE 12.7 mph 20.7 mph N/A   Overcast
12:55 PM 69.8 °F 59.0 °F 68% 30.01 in 10.0 mi ENE 16.1 mph 23.0 mph N/A   Overcast
1:15 PM 69.8 °F 59.0 °F 68% 30.01 in 10.0 mi ENE 16.1 mph 26.5 mph N/A   Mostly Cloudy
1:35 PM 69.8 °F 59.0 °F 68% 30.01 in 10.0 mi ENE 17.3 mph 20.7 mph N/A   Mostly Cloudy
2:15 PM 69.8 °F 60.8 °F 73% 30.01 in 10.0 mi East 13.8 mph 19.6 mph N/A   Mostly Cloudy
2:35 PM 69.8 °F 60.8 °F 73% 30.00 in 10.0 mi ENE 13.8 mph 19.6 mph N/A   Mostly Cloudy
2:55 PM 68.0 °F 62.6 °F 83% 30.01 in 10.0 mi East 15.0 mph - N/A   Mostly Cloudy
3:15 PM 69.8 °F 60.8 °F 73% 30.00 in 10.0 mi East 11.5 mph - N/A   Partly Cloudy
3:35 PM 69.8 °F 60.8 °F 73% 29.99 in 9.0 mi East 10.4 mph - N/A   Mostly Cloudy
3:55 PM 66.2 °F 62.6 °F 88% 29.99 in 10.0 mi ENE 11.5 mph - 0.01 in   Overcast
4:15 PM 68.0 °F 62.6 °F 83% 29.99 in 10.0 mi East 16.1 mph 21.9 mph N/A   Partly Cloudy
4:35 PM 68.0 °F 62.6 °F 83% 29.98 in 10.0 mi East 12.7 mph 16.1 mph N/A   Clear
4:55 PM 68.0 °F 62.6 °F 83% 29.98 in 10.0 mi East 12.7 mph 16.1 mph N/A   Partly Cloudy
5:15 PM 69.8 °F 60.8 °F 73% 29.98 in 10.0 mi ENE 16.1 mph - N/A   Mostly Cloudy
5:35 PM 68.0 °F 60.8 °F 78% 29.98 in 10.0 mi East 13.8 mph - N/A   Partly Cloudy
5:55 PM 68.0 °F 60.8 °F 78% 29.98 in 10.0 mi East 10.4 mph - N/A   Clear
6:15 PM 66.2 °F 60.8 °F 83% 29.97 in 10.0 mi ENE 13.8 mph 20.7 mph N/A   Clear
6:35 PM 66.2 °F 60.8 °F 83% 29.97 in 10.0 mi ENE 15.0 mph 20.7 mph N/A   Partly Cloudy
6:55 PM 66.2 °F 60.8 °F 83% 29.97 in 10.0 mi ENE 18.4 mph - N/A   Scattered Clouds
7:15 PM 64.4 °F 60.8 °F 88% 29.97 in 10.0 mi East 17.3 mph 21.9 mph N/A   Mostly Cloudy
7:35 PM 64.4 °F 59.0 °F 83% 29.98 in 10.0 mi ENE 15.0 mph - N/A   Mostly Cloudy
8:15 PM 62.6 °F 59.0 °F 88% 29.99 in 10.0 mi ENE 13.8 mph 18.4 mph N/A   Mostly Cloudy
8:35 PM 62.6 °F 57.2 °F 82% 29.98 in 10.0 mi ENE 13.8 mph 19.6 mph N/A   Overcast
8:55 PM 62.6 °F 57.2 °F 82% 29.99 in 10.0 mi ENE 15.0 mph 21.9 mph N/A   Overcast
9:15 PM 62.6 °F 57.2 °F 82% 29.98 in 10.0 mi ENE 16.1 mph 21.9 mph N/A   Overcast
9:35 PM 62.6 °F 57.2 °F 82% 29.99 in 10.0 mi ENE 15.0 mph - N/A   Overcast
9:55 PM 62.6 °F 57.2 °F 82% 29.99 in 10.0 mi ENE 13.8 mph 19.6 mph N/A   Overcast
10:35 PM 62.6 °F 57.2 °F 82% 30.00 in 10.0 mi ENE 16.1 mph 19.6 mph N/A   Overcast
10:55 PM 62.6 °F 57.2 °F 82% 29.99 in 10.0 mi ENE 15.0 mph 21.9 mph N/A   Overcast
11:15 PM 62.6 °F 57.2 °F 82% 29.99 in 10.0 mi ENE 12.7 mph 17.3 mph N/A   Overcast
11:35 PM 62.6 °F 57.2 °F 82% 29.99 in 10.0 mi ENE 13.8 mph - N/A   Overcast
11:55 PM 62.6 °F 57.2 °F 82% 29.98 in 10.0 mi ENE 11.5 mph - N/A   Mostly Cloudy